NFC9342 DTTA-DAAG

Flight info

Callsign NFC9342
Flight time 0h 59m
Altitude 24000
Route KEMIR3C KEMIR A411 BJA DCT 37N004E DCT ZEM DCT
Aircraft B77L/H-SDE1E2E3FGHIJ2J3J4J5M1RWXY/LB1D1

Departure

Time 2026-04-27 13:14
Airport Tunis Carthage International Airport (DTTA)

Arrival

Time 2026-04-27 14:14
Airport Houari Boumediene Airport (DAAG)
Time Latitude Longitude Altitude Speed Heading
2026-04-27 13:02 36.84021 10.21692 35 ft 0 kts 282°
2026-04-27 13:06 36.84020 10.21696 35 ft 3 kts 282°
2026-04-27 13:06 36.84014 10.21728 35 ft 4 kts 282°
2026-04-27 13:06 36.84008 10.21761 33 ft 4 kts 282°
2026-04-27 13:06 36.84002 10.21794 33 ft 4 kts 282°
2026-04-27 13:07 36.83997 10.21826 34 ft 2 kts 282°
2026-04-27 13:07 36.83989 10.21852 33 ft 4 kts 323°
2026-04-27 13:07 36.83967 10.21857 33 ft 4 kts 15°
2026-04-27 13:07 36.83954 10.21852 35 ft 1 kts 13°
2026-04-27 13:09 36.83955 10.21852 35 ft 1 kts 13°
2026-04-27 13:09 36.83977 10.21858 35 ft 6 kts 13°
2026-04-27 13:09 36.84039 10.21876 35 ft 12 kts 12°
2026-04-27 13:10 36.84135 10.21903 35 ft 16 kts 12°
2026-04-27 13:10 36.84243 10.21931 35 ft 16 kts 13°
2026-04-27 13:10 36.84353 10.21962 35 ft 16 kts 13°
2026-04-27 13:10 36.84451 10.22022 35 ft 16 kts 41°
2026-04-27 13:11 36.84498 10.22145 35 ft 16 kts 92°
2026-04-27 13:11 36.84538 10.22268 33 ft 17 kts 22°
2026-04-27 13:11 36.84657 10.22300 35 ft 18 kts 12°
2026-04-27 13:11 36.84776 10.22331 35 ft 18 kts 11°
2026-04-27 13:12 36.84896 10.22360 35 ft 18 kts 11°
2026-04-27 13:12 36.85008 10.22348 35 ft 18 kts 309°
2026-04-27 13:12 36.85048 10.22203 35 ft 18 kts 286°
2026-04-27 13:12 36.85098 10.22060 35 ft 18 kts 295°
2026-04-27 13:13 36.85151 10.21919 35 ft 18 kts 294°
2026-04-27 13:13 36.85202 10.21779 32 ft 18 kts 297°
2026-04-27 13:13 36.85308 10.21735 35 ft 18 kts 15°
2026-04-27 13:13 36.85401 10.21824 36 ft 18 kts 86°
2026-04-27 13:14 36.85338 10.22034 36 ft 43 kts 112°
2026-04-27 13:14 36.85097 10.22766 39 ft 145 kts 112°
2026-04-27 13:14 36.84608 10.24218 459 ft 196 kts 112°
2026-04-27 13:14 36.83920 10.25715 1493 ft 208 kts 134°
2026-04-27 13:15 36.82627 10.26663 2556 ft 226 kts 164°
2026-04-27 13:15 36.80990 10.26653 3333 ft 247 kts 198°
2026-04-27 13:15 36.79550 10.25525 4383 ft 254 kts 229°
2026-04-27 13:15 36.78759 10.23544 5500 ft 262 kts 260°
2026-04-27 13:16 36.78700 10.21264 6691 ft 265 kts 273°
2026-04-27 13:16 36.78860 10.18969 7937 ft 269 kts 275°
2026-04-27 13:16 36.79061 10.16631 9155 ft 272 kts 275°
2026-04-27 13:16 36.79262 10.14268 10389 ft 275 kts 275°
2026-04-27 13:17 36.79460 10.11832 11216 ft 294 kts 274°
2026-04-27 13:17 36.79663 10.09155 11562 ft 328 kts 274°
2026-04-27 13:17 36.79873 10.06237 12095 ft 351 kts 274°
2026-04-27 13:17 36.80085 10.03172 13226 ft 357 kts 274°
2026-04-27 13:18 36.80290 10.00084 14470 ft 358 kts 274°
2026-04-27 13:18 36.80492 9.96961 15522 ft 364 kts 274°
2026-04-27 13:18 36.80694 9.93770 16467 ft 373 kts 274°
2026-04-27 13:18 36.80898 9.90511 17406 ft 380 kts 274°
2026-04-27 13:19 36.81104 9.87193 18386 ft 387 kts 274°
2026-04-27 13:19 36.81311 9.83828 19261 ft 392 kts 274°
2026-04-27 13:19 36.81519 9.80426 20178 ft 395 kts 273°
2026-04-27 13:19 36.81726 9.77033 21067 ft 399 kts 273°
2026-04-27 13:20 36.81937 9.73550 21913 ft 405 kts 273°
2026-04-27 13:20 36.82150 9.70023 22771 ft 410 kts 273°
2026-04-27 13:20 36.82364 9.66462 23627 ft 414 kts 273°
2026-04-27 13:20 36.82579 9.62854 24074 ft 418 kts 273°
2026-04-27 13:21 36.82795 9.59233 24073 ft 421 kts 273°
2026-04-27 13:21 36.83012 9.55587 24070 ft 419 kts 273°
2026-04-27 13:21 36.83225 9.51963 24070 ft 418 kts 273°
2026-04-27 13:21 36.83435 9.48391 24075 ft 419 kts 273°
2026-04-27 13:22 36.83646 9.44763 24089 ft 419 kts 272°
2026-04-27 13:22 36.83808 9.41133 24075 ft 420 kts 269°
2026-04-27 13:22 36.83743 9.37486 24079 ft 420 kts 267°
2026-04-27 13:22 36.83644 9.33848 24076 ft 420 kts 267°
2026-04-27 13:23 36.83549 9.30195 24078 ft 420 kts 267°
2026-04-27 13:23 36.83460 9.26549 24063 ft 420 kts 267°
2026-04-27 13:23 36.83376 9.22906 24074 ft 420 kts 267°
2026-04-27 13:23 36.83293 9.19266 24078 ft 420 kts 267°
2026-04-27 13:24 36.83210 9.15674 24073 ft 419 kts 267°
2026-04-27 13:24 36.83125 9.12043 24075 ft 419 kts 267°
2026-04-27 13:24 36.83031 9.08404 24084 ft 419 kts 266°
2026-04-27 13:24 36.82923 9.04772 24071 ft 419 kts 266°
2026-04-27 13:25 36.82811 9.01148 24071 ft 418 kts 266°
2026-04-27 13:25 36.82710 8.97534 24085 ft 418 kts 267°
2026-04-27 13:25 36.82746 8.93890 24071 ft 418 kts 270°
2026-04-27 13:25 36.82833 8.90274 24080 ft 418 kts 270°
2026-04-27 13:26 36.82925 8.86694 24086 ft 418 kts 270°
2026-04-27 13:26 36.83014 8.83069 24072 ft 418 kts 270°
2026-04-27 13:26 36.83098 8.79451 24064 ft 418 kts 270°
2026-04-27 13:26 36.83177 8.75826 24079 ft 417 kts 270°
2026-04-27 13:27 36.83253 8.72204 24070 ft 418 kts 270°
2026-04-27 13:27 36.83328 8.68583 24066 ft 417 kts 270°
2026-04-27 13:27 36.83401 8.64963 24085 ft 417 kts 270°
2026-04-27 13:27 36.83440 8.61344 24079 ft 417 kts 269°
2026-04-27 13:28 36.83444 8.57726 24078 ft 417 kts 268°
2026-04-27 13:28 36.83434 8.54153 24078 ft 417 kts 268°
2026-04-27 13:28 36.83422 8.50530 24069 ft 417 kts 268°
2026-04-27 13:28 36.83412 8.46909 24068 ft 417 kts 268°
2026-04-27 13:29 36.83405 8.43286 24076 ft 417 kts 268°
2026-04-27 13:29 36.83400 8.39669 24069 ft 417 kts 268°
2026-04-27 13:29 36.83395 8.36041 24067 ft 417 kts 268°
2026-04-27 13:29 36.83389 8.32423 24075 ft 417 kts 269°
2026-04-27 13:30 36.83383 8.28799 24077 ft 418 kts 269°
2026-04-27 13:30 36.83376 8.25169 24079 ft 418 kts 269°
2026-04-27 13:30 36.83368 8.21586 24069 ft 419 kts 269°
2026-04-27 13:30 36.83358 8.17943 24061 ft 420 kts 269°
2026-04-27 13:31 36.83347 8.14302 24061 ft 420 kts 268°
2026-04-27 13:31 36.83335 8.10665 24061 ft 420 kts 268°
2026-04-27 13:31 36.83322 8.07016 24063 ft 420 kts 268°
2026-04-27 13:31 36.83308 8.03374 24057 ft 420 kts 268°
2026-04-27 13:32 36.83292 7.99734 24058 ft 420 kts 268°
2026-04-27 13:32 36.83276 7.96088 24050 ft 420 kts 269°
2026-04-27 13:32 36.83259 7.92493 24041 ft 420 kts 269°
2026-04-27 13:32 36.83241 7.88848 24055 ft 421 kts 269°
2026-04-27 13:33 36.83222 7.85191 24060 ft 421 kts 269°
2026-04-27 13:33 36.83201 7.81528 24047 ft 422 kts 269°
2026-04-27 13:33 36.83172 7.77874 24046 ft 422 kts 269°
2026-04-27 13:33 36.83136 7.74203 24053 ft 422 kts 269°
2026-04-27 13:34 36.83110 7.71777 24055 ft 422 kts 269°
2026-04-27 13:34 36.83070 7.68114 24063 ft 422 kts 269°
2026-04-27 13:34 36.83015 7.63211 24051 ft 422 kts 269°
2026-04-27 13:34 36.82973 7.59592 24050 ft 422 kts 269°
2026-04-27 13:35 36.82930 7.55926 24051 ft 423 kts 269°
2026-04-27 13:35 36.82887 7.52260 24058 ft 423 kts 269°
2026-04-27 13:35 36.82843 7.48586 24060 ft 423 kts 269°
2026-04-27 13:35 36.82798 7.44915 24063 ft 424 kts 269°
2026-04-27 13:36 36.82768 7.42479 24049 ft 424 kts 269°
2026-04-27 13:36 36.82721 7.38801 24058 ft 424 kts 269°
2026-04-27 13:36 36.82672 7.35120 24060 ft 424 kts 269°
2026-04-27 13:36 36.82623 7.31444 24058 ft 424 kts 269°
2026-04-27 13:37 36.82556 7.26572 24060 ft 424 kts 269°
2026-04-27 13:37 36.82504 7.22896 24060 ft 424 kts 269°
2026-04-27 13:37 36.82468 7.20411 24056 ft 424 kts 269°
2026-04-27 13:37 36.82414 7.16737 24049 ft 423 kts 269°
2026-04-27 13:38 36.82360 7.13114 24056 ft 423 kts 269°
2026-04-27 13:38 36.82304 7.09448 24052 ft 423 kts 269°
2026-04-27 13:38 36.82247 7.05780 24051 ft 422 kts 269°
2026-04-27 13:38 36.82189 7.02116 24059 ft 422 kts 269°
2026-04-27 13:39 36.82129 6.98454 24042 ft 422 kts 269°
2026-04-27 13:39 36.82069 6.94792 24047 ft 422 kts 269°
2026-04-27 13:39 36.82007 6.91131 24051 ft 422 kts 269°
2026-04-27 13:39 36.81945 6.87470 24051 ft 422 kts 269°
2026-04-27 13:40 36.81881 6.83816 24043 ft 421 kts 269°
2026-04-27 13:40 36.81816 6.80203 24037 ft 422 kts 269°
2026-04-27 13:40 36.81750 6.76548 24059 ft 422 kts 269°
2026-04-27 13:40 36.81683 6.72872 24053 ft 423 kts 269°
2026-04-27 13:41 36.81614 6.69202 24057 ft 424 kts 269°
2026-04-27 13:41 36.81545 6.65520 24051 ft 424 kts 269°
2026-04-27 13:41 36.81474 6.61841 24048 ft 425 kts 269°
2026-04-27 13:41 36.81402 6.58155 24053 ft 425 kts 269°
2026-04-27 13:42 36.81329 6.54474 24051 ft 425 kts 269°
2026-04-27 13:42 36.81255 6.50792 24049 ft 423 kts 269°
2026-04-27 13:42 36.81181 6.47181 24043 ft 422 kts 269°
2026-04-27 13:42 36.81106 6.43526 24034 ft 421 kts 270°
2026-04-27 13:43 36.81028 6.39876 24044 ft 420 kts 270°
2026-04-27 13:43 36.80949 6.36234 24046 ft 420 kts 270°
2026-04-27 13:43 36.80870 6.32592 24040 ft 420 kts 270°
2026-04-27 13:43 36.80789 6.28945 24049 ft 420 kts 270°
2026-04-27 13:44 36.80708 6.25305 24053 ft 420 kts 270°
2026-04-27 13:44 36.80626 6.21652 24059 ft 421 kts 270°
2026-04-27 13:44 36.80543 6.18050 24061 ft 421 kts 270°
2026-04-27 13:44 36.80458 6.14399 24063 ft 422 kts 270°
2026-04-27 13:45 36.80373 6.10741 24057 ft 422 kts 270°
2026-04-27 13:45 36.80285 6.07079 24053 ft 422 kts 269°
2026-04-27 13:45 36.80195 6.03423 24069 ft 422 kts 269°
2026-04-27 13:45 36.80107 5.99751 24068 ft 423 kts 269°
2026-04-27 13:46 36.80018 5.96085 24074 ft 424 kts 269°
2026-04-27 13:46 36.79926 5.92410 24075 ft 424 kts 269°
2026-04-27 13:46 36.79831 5.88733 24072 ft 424 kts 269°
2026-04-27 13:46 36.79601 5.85068 24077 ft 425 kts 264°
2026-04-27 13:47 36.79228 5.81458 24079 ft 425 kts 264°
2026-04-27 13:47 36.78844 5.77808 24079 ft 425 kts 264°
2026-04-27 13:47 36.78461 5.74155 24075 ft 425 kts 264°
2026-04-27 13:47 36.78082 5.70506 24072 ft 425 kts 264°
2026-04-27 13:48 36.77704 5.66849 24063 ft 425 kts 264°
2026-04-27 13:48 36.77328 5.63199 24072 ft 425 kts 264°
2026-04-27 13:48 36.76951 5.59544 24052 ft 425 kts 264°
2026-04-27 13:48 36.76580 5.55941 24058 ft 424 kts 264°
2026-04-27 13:49 36.76204 5.52298 24057 ft 423 kts 264°
2026-04-27 13:49 36.75827 5.48665 24061 ft 422 kts 264°
2026-04-27 13:49 36.75450 5.45038 24065 ft 422 kts 263°
2026-04-27 13:49 36.75071 5.41413 24067 ft 422 kts 263°
2026-04-27 13:50 36.74692 5.37786 24066 ft 422 kts 263°
2026-04-27 13:50 36.74311 5.34158 24070 ft 422 kts 263°
2026-04-27 13:50 36.73929 5.30526 24064 ft 423 kts 263°
2026-04-27 13:50 36.73545 5.26893 24071 ft 423 kts 263°
2026-04-27 13:51 36.73165 5.23302 24078 ft 424 kts 263°
2026-04-27 13:51 36.72779 5.19661 24079 ft 425 kts 263°
2026-04-27 13:51 36.72390 5.16008 24078 ft 425 kts 263°
2026-04-27 13:51 36.72025 5.12353 24076 ft 425 kts 266°
2026-04-27 13:52 36.72015 5.08676 24070 ft 425 kts 275°
2026-04-27 13:52 36.72386 5.05028 24076 ft 424 kts 280°
2026-04-27 13:52 36.73087 5.01454 24079 ft 424 kts 287°
2026-04-27 13:52 36.74029 4.97970 24074 ft 424 kts 288°
2026-04-27 13:53 36.75952 4.91002 23973 ft 426 kts 288°
2026-04-27 13:53 36.76893 4.87569 23983 ft 424 kts 288°
2026-04-27 13:53 36.77842 4.84073 23796 ft 426 kts 288°
2026-04-27 13:54 36.78788 4.80565 23273 ft 427 kts 288°
2026-04-27 13:54 36.79724 4.77071 22740 ft 422 kts 288°
2026-04-27 13:54 36.80647 4.73617 22202 ft 417 kts 288°
2026-04-27 13:54 36.81557 4.70202 21701 ft 413 kts 288°
2026-04-27 13:55 36.82459 4.66809 21177 ft 411 kts 288°
2026-04-27 13:55 36.83342 4.63486 20690 ft 409 kts 288°
2026-04-27 13:55 36.84249 4.60068 20195 ft 407 kts 288°
2026-04-27 13:55 36.85139 4.56713 19711 ft 406 kts 288°
2026-04-27 13:56 36.86012 4.53417 19247 ft 406 kts 287°
2026-04-27 13:56 36.86898 4.50068 18791 ft 405 kts 287°
2026-04-27 13:56 36.87779 4.46732 18328 ft 404 kts 287°
2026-04-27 13:56 36.88657 4.43403 17795 ft 403 kts 287°
2026-04-27 13:57 36.89530 4.40088 17274 ft 402 kts 287°
2026-04-27 13:57 36.90400 4.36778 16761 ft 399 kts 287°
2026-04-27 13:57 36.91263 4.33495 16262 ft 397 kts 287°
2026-04-27 13:57 36.92119 4.30237 15782 ft 392 kts 287°
2026-04-27 13:58 36.92963 4.27013 15199 ft 389 kts 287°
2026-04-27 13:58 36.93793 4.23842 14504 ft 389 kts 287°
2026-04-27 13:58 36.94631 4.20638 13801 ft 387 kts 286°
2026-04-27 13:58 36.95464 4.17448 13030 ft 385 kts 286°
2026-04-27 13:59 36.96291 4.14275 12271 ft 383 kts 286°
2026-04-27 13:59 36.97115 4.11113 11530 ft 381 kts 286°
2026-04-27 13:59 36.97933 4.07971 10804 ft 379 kts 286°
2026-04-27 13:59 36.98744 4.04849 10102 ft 376 kts 287°
2026-04-27 14:00 36.99324 4.01735 9310 ft 364 kts 273°
2026-04-27 14:00 36.99059 3.98608 8555 ft 362 kts 254°
2026-04-27 14:00 36.98106 3.95763 7832 ft 358 kts 240°
2026-04-27 14:00 36.96837 3.93105 7112 ft 353 kts 240°
2026-04-27 14:01 36.95777 3.90331 6391 ft 355 kts 249°
2026-04-27 14:01 36.95025 3.87393 5654 ft 355 kts 252°
2026-04-27 14:01 36.94294 3.84444 4917 ft 355 kts 252°
2026-04-27 14:01 36.93546 3.81505 4183 ft 355 kts 251°
2026-04-27 14:02 36.92789 3.78567 3454 ft 355 kts 252°
2026-04-27 14:02 36.92035 3.75650 2764 ft 352 kts 252°
2026-04-27 14:02 36.91295 3.72793 2465 ft 337 kts 252°
2026-04-27 14:02 36.90584 3.70048 2265 ft 335 kts 252°
2026-04-27 14:03 36.89876 3.67315 2184 ft 333 kts 252°
2026-04-27 14:03 36.89167 3.64581 2181 ft 328 kts 252°
2026-04-27 14:03 36.88464 3.61870 2184 ft 329 kts 252°
2026-04-27 14:03 36.87757 3.59147 2186 ft 330 kts 252°
2026-04-27 14:04 36.87051 3.56432 2168 ft 328 kts 252°
2026-04-27 14:04 36.86348 3.53733 2184 ft 326 kts 252°
2026-04-27 14:04 36.85645 3.51034 2191 ft 327 kts 252°
2026-04-27 14:04 36.84940 3.48333 2187 ft 328 kts 252°
2026-04-27 14:05 36.84234 3.45625 2189 ft 328 kts 252°
2026-04-27 14:05 36.83526 3.42916 2175 ft 329 kts 252°
2026-04-27 14:05 36.82815 3.40199 2193 ft 330 kts 252°
2026-04-27 14:05 36.82102 3.37478 2193 ft 330 kts 252°
2026-04-27 14:06 36.81390 3.34761 2203 ft 328 kts 252°
2026-04-27 14:06 36.80705 3.32152 2181 ft 311 kts 252°
2026-04-27 14:06 36.80055 3.29677 2175 ft 290 kts 252°
2026-04-27 14:06 36.79445 3.27359 2183 ft 271 kts 252°
2026-04-27 14:07 36.78876 3.25197 2180 ft 254 kts 252°
2026-04-27 14:07 36.78346 3.23182 2185 ft 236 kts 252°
2026-04-27 14:07 36.77849 3.21297 2171 ft 220 kts 252°
2026-04-27 14:07 36.77393 3.19569 2162 ft 199 kts 252°
2026-04-27 14:08 36.76970 3.17964 2185 ft 192 kts 252°
2026-04-27 14:08 36.76563 3.16419 2227 ft 189 kts 252°
2026-04-27 14:08 36.76151 3.14859 2278 ft 189 kts 252°
2026-04-27 14:08 36.75741 3.13304 2258 ft 186 kts 252°
2026-04-27 14:09 36.75343 3.11802 2215 ft 180 kts 252°
2026-04-27 14:09 36.74965 3.10378 2178 ft 164 kts 252°
2026-04-27 14:09 36.74669 3.09064 2175 ft 152 kts 268°
2026-04-27 14:09 36.74901 3.07815 2221 ft 151 kts 288°
2026-04-27 14:10 36.74815 3.06569 2204 ft 151 kts 239°
2026-04-27 14:10 36.73958 3.05843 2201 ft 153 kts 187°
2026-04-27 14:10 36.72896 3.05858 2213 ft 156 kts 178°
2026-04-27 14:10 36.71821 3.05929 2182 ft 153 kts 164°
2026-04-27 14:11 36.70940 3.06566 2207 ft 145 kts 133°
2026-04-27 14:11 36.70301 3.07558 2211 ft 148 kts 117°
2026-04-27 14:11 36.69818 3.08700 2168 ft 150 kts 112°
2026-04-27 14:11 36.69518 3.09946 1956 ft 149 kts 96°
2026-04-27 14:12 36.69394 3.11193 1582 ft 146 kts 93°
2026-04-27 14:12 36.69316 3.12478 1059 ft 149 kts 89°
2026-04-27 14:12 36.69284 3.13738 641 ft 140 kts 88°
2026-04-27 14:12 36.69258 3.14880 405 ft 129 kts 89°
2026-04-27 14:13 36.69233 3.16015 257 ft 134 kts 90°
2026-04-27 14:13 36.69204 3.17153 114 ft 133 kts 89°
2026-04-27 14:13 36.69180 3.18237 84 ft 108 kts 91°
2026-04-27 14:13 36.69163 3.18945 83 ft 55 kts 92°
2026-04-27 14:14 36.69152 3.19438 82 ft 49 kts 91°
2026-04-27 14:14 36.69184 3.19822 66 ft 41 kts 65°
2026-04-27 14:14 36.69263 3.20014 66 ft 19 kts 64°
2026-04-27 14:14 36.69297 3.20172 69 ft 19 kts 85°
2026-04-27 14:15 36.69365 3.20288 68 ft 19 kts
2026-04-27 14:15 36.69482 3.20359 65 ft 20 kts 12°
2026-04-27 14:15 36.69601 3.20419 66 ft 20 kts 70°
2026-04-27 14:15 36.69602 3.20555 67 ft 4 kts 108°
2026-04-27 14:16 36.69581 3.20593 65 ft 10 kts 145°
2026-04-27 14:16 36.69535 3.20596 71 ft 2 kts 185°
2026-04-27 14:16 36.69521 3.20595 74 ft 0 kts 183°
2026-04-27 14:16 36.69520 3.20595 74 ft 0 kts 183°